ENRS

Røst Airport

Airport
ICAO code
ENRS
IATA Code
RET
Summary
ICAO Region
EUR
ICAO Territory
Location

Røst, Nordland,

Serving
Røstlandet
Elevation
10 ft
Coordinates
67° 31' 37" N , 12° 6' 9" E
KCC
Metar
ENRS 201450Z AUTO 34008KT 9999 NCD 06/01 Q1023

Description

Regional airport serving the island and municipality of Røst in Nordland, Norway.

Climatology

Subpolar Oceanic climate (Köppen climate classification Cfc) - uniform precipitation distribution, temperatures are moderated by the proximity of the ocean and warm currents - cool summers and comparatively mild winters.

Runways

Designator Length Width Surface Rops
3/21 880 0 UNK No/No

Airport map

Aerial View

SKYbrary Partners:

Safety knowledge contributed by: